QPF
0.02 0.03 0.05 0.05 0.06 0.07 0.07 0.08 0.09 0.08 0.07 0.06 0.05 0.03 0.02 0.03 0.03 0.04 0.05 0.04 0.04 0.04 0.04 0.04 0.03 0.04 0.05 0.05 0.05 0.04 0.04 0.03 0.03 0.03 0.02 0.03 0.03 0.03 0.04 0.05 0.05 0.05 0.07
0.02 0.02 0.05 0.05 0.06 0.06 0.07 0.08 0.09 0.08 0.07 0.06 0.05 0.02 0.02 0.01 0.03 0.03 0.04 0.02 0.02 0.02 0.02 0.02 0.01 0.01 0.03 0.04 0.05 0.04 0.04 0.03 0.03 0.03 0.03 0.03 0.03 0.04 0.04 0.06 0.06 0.06 0.07
0.01 0.02 0.04 0.05 0.04 0.04 0.05 0.06 0.07 0.06 0.05 0.04 0.03 0.02 0.02 0.01 0.02 0.01 0.02 0.02 0.02 0.02 0.01 0.01 0.01 0.01 0.02 0.03 0.05 0.05 0.04 0.03 0.03 0.03 0.03 0.03 0.04 0.04 0.04 0.05 0.06 0.07 0.07
0.01 0.02 0.03 0.04 0.03 0.03 0.03 0.04 0.05 0.05 0.04 0.03 0.02 0.02 0.01 0.01 0.01 0.01 0.01 0.01 0.02 0.02 0.02 0.01 0.01 0.01 0.02 0.02 0.04 0.05 0.05 0.04 0.03 0.03 0.03 0.03 0.04 0.06 0.08 0.07 0.06 0.07 0.08
0.01 0.02 0.03 0.03 0.03 0.03 0.02 0.02 0.03 0.03 0.03 0.01 0.01 0.01 0.01 0.01 0.00 0.00 0.01 0.01 0.00 0.01 0.01 0.01 0.01 0.01 0.01 0.02 0.02 0.04 0.04 0.03 0.03 0.04 0.03 0.04 0.04 0.04 0.05 0.04 0.05 0.06 0.06
0.02 0.02 0.02 0.02 0.02 0.03 0.02 0.02 0.02 0.02 0.02 0.02 0.01 0.00 0.00 0.01 0.01 0.00 0.00 0.01 0.01 0.01 0.01 0.01 0.01 0.00 0.00 0.01 0.01 0.03 0.03 0.03 0.03 0.03 0.03 0.04 0.04 0.03 0.03 0.03 0.04 0.06 0.07
0.03 0.03 0.03 0.03 0.03 0.03 0.02 0.02 0.03 0.03 0.02 0.02 0.01 0.01 0.01 0.00 0.01 0.01 0.01 0.01 0.01 0.01 0.01 0.01 0.01 0.01 0.00 0.00 0.01 0.02 0.02 0.02 0.03 0.04 0.04 0.03 0.04 0.04 0.04 0.04 0.05 0.05 0.05
0.02 0.02 0.02 0.03 0.03 0.02 0.02 0.03 0.04 0.04 0.02 0.02 0.02 0.03 0.02 0.02 0.01 0.01 0.01 0.01 0.01 0.01 0.01 0.00 0.00 0.00 0.00 0.01 0.01 0.02 0.02 0.03 0.04 0.05 0.05 0.05 0.05 0.05 0.03 0.04 0.07 0.08 0.06
0.03 0.02 0.01 0.02 0.02 0.02 0.03 0.04 0.05 0.05 0.03 0.02 0.01 0.03 0.03 0.02 0.02 0.01 0.02 0.02 0.02 0.02 0.01 0.01 0.01 0.00 0.00 0.01 0.01 0.01 0.01 0.02 0.03 0.04 0.05 0.06 0.07 0.06 0.04 0.05 0.09 0.09 0.07
0.03 0.03 0.02 0.01 0.02 0.03 0.03 0.03 0.02 0.03 0.04 0.03 0.02 0.02 0.02 0.02 0.02 0.02 0.02 0.01 0.02 0.02 0.02 0.01 0.01 0.01 0.00 0.01 0.01 0.00 0.00 0.01 0.01 0.02 0.04 0.05 0.06 0.06 0.05 0.04 0.05 0.05 0.05
0.02 0.04 0.04 0.02 0.02 0.03 0.03 0.03 0.02 0.02 0.04 0.04 0.04 0.03 0.03 0.02 0.02 0.02 0.02 0.02 0.01 0.01 0.01 0.02 0.02 0.02 0.01 0.01 0.01 0.01 0.00 0.00 0.01 0.02 0.04 0.05 0.06 0.07 0.06 0.04 0.03 0.04 0.05
0.02 0.02 0.04 0.03 0.03 0.03 0.04 0.03 0.02 0.02 0.03 0.03 0.04 0.03 0.03 0.03 0.02 0.02 0.02 0.01 0.01 0.01 0.02 0.02 0.02 0.02 0.01 0.01 0.01 0.00 0.01 0.01 0.02 0.02 0.03 0.05 0.05 0.05 0.05 0.04 0.03 0.04 0.05
0.01 0.01 0.03 0.02 0.02 0.03 0.02 0.01 0.01 0.01 0.01 0.02 0.03 0.03 0.03 0.03 0.02 0.02 0.02 0.02 0.01 0.01 0.02 0.02 0.02 0.01 0.01 0.01 0.01 0.01 0.01 0.03 0.03 0.04 0.05 0.05 0.03 0.02 0.02 0.03 0.03 0.04 0.05
0.01 0.01 0.02 0.01 0.01 0.02 0.01 0.01 0.01 0.01 0.01 0.02 0.02 0.03 0.03 0.03 0.02 0.02 0.02 0.02 0.02 0.02 0.02 0.02 0.01 0.01 0.01 0.01 0.02 0.02 0.02 0.03 0.03 0.04 0.03 0.01 0.01 0.01 0.01 0.02 0.03 0.03 0.04
0.01 0.00 0.01 0.01 0.01 0.01 0.00 0.01 0.01 0.01 0.01 0.02 0.02 0.02 0.01 0.02 0.02 0.02 0.02 0.02 0.02 0.02 0.02 0.02 0.02 0.02 0.02 0.02 0.02 0.02 0.02 0.02 0.01 0.01 0.01 0.00 0.00 0.01 0.01 0.01 0.02 0.02 0.02
0.01 0.00 0.00 0.00 0.01 0.01 0.00 0.01 0.01 0.02 0.02 0.02 0.02 0.02 0.02 0.01 0.02 0.02 0.02 0.02 0.02 0.01 0.02 0.02 0.02 0.02 0.02 0.02 0.03 0.03 0.03 0.02 0.01 0.00 0.00 0.00 0.00 0.00 0.00 0.01 0.02 0.02 0.02
0.01 0.01 0.01 0.00 0.00 0.00 0.01 0.01 0.01 0.01 0.02 0.02 0.01 0.02 0.02 0.02 0.02 0.02 0.02 0.02 0.02 0.02 0.01 0.01 0.02 0.01 0.01 0.02 0.03 0.03 0.03 0.02 0.01 0.01 0.00 0.00 0.00 0.00 0.00 0.01 0.01 0.01 0.01
0.01 0.01 0.01 0.01 0.01 0.01 0.01 0.01 0.01 0.01 0.01 0.02 0.02 0.03 0.03 0.02 0.02 0.01 0.02 0.02 0.02 0.02 0.01 0.01 0.01 0.01 0.01 0.01 0.02 0.02 0.02 0.02 0.01 0.00 0.00 0.00 0.00 0.00 0.01 0.01 0.02 0.01 0.01
0.01 0.00 0.00 0.01 0.01 0.01 0.02 0.01 0.02 0.02 0.02 0.02 0.03 0.03 0.03 0.02 0.01 0.02 0.02 0.02 0.02 0.02 0.02 0.02 0.02 0.01 0.01 0.01 0.01 0.02 0.02 0.02 0.02 0.01 0.00 0.01 0.01 0.01 0.01 0.01 0.02 0.02 0.01
0.01 0.01 0.01 0.02 0.02 0.01 0.02 0.02 0.03 0.03 0.03 0.03 0.02 0.02 0.02 0.02 0.02 0.02 0.02 0.02 0.01 0.02 0.02 0.02 0.02 0.02 0.02 0.01 0.01 0.02 0.02 0.02 0.02 0.01 0.01 0.01 0.01 0.01 0.02 0.02 0.02 0.02 0.02
0.01 0.01 0.01 0.01 0.02 0.02 0.03 0.03 0.02 0.02 0.02 0.02 0.03 0.03 0.03 0.03 0.03 0.03 0.02 0.02 0.02 0.02 0.02 0.02 0.02 0.02 0.01 0.02 0.02 0.02 0.02 0.02 0.02 0.02 0.01 0.01 0.01 0.01 0.01 0.02 0.03 0.03 0.03
0.01 0.01 0.01 0.01 0.01 0.02 0.03 0.03 0.03 0.02 0.02 0.02 0.03 0.03 0.03 0.03 0.02 0.02 0.02 0.02 0.02 0.02 0.02 0.03 0.03 0.02 0.01 0.01 0.02 0.02 0.03 0.03 0.03 0.02 0.02 0.01 0.01 0.01 0.01 0.01 0.02 0.04 0.05
0.01 0.01 0.01 0.02 0.02 0.03 0.03 0.01 0.02 0.02 0.02 0.03 0.03 0.02 0.02 0.02 0.01 0.02 0.02 0.02 0.01 0.01 0.02 0.02 0.02 0.02 0.01 0.01 0.01 0.02 0.02 0.02 0.03 0.02 0.02 0.02 0.01 0.01 0.01 0.01 0.02 0.03 0.03
0.01 0.01 0.01 0.01 0.01 0.02 0.02 0.01 0.01 0.02 0.02 0.03 0.02 0.02 0.02 0.01 0.01 0.01 0.01 0.01 0.01 0.01 0.01 0.01 0.01 0.01 0.01 0.01 0.02 0.02 0.02 0.02 0.02 0.03 0.04 0.03 0.02 0.02 0.01 0.01 0.02 0.03 0.05
0.02 0.02 0.01 0.01 0.01 0.01 0.01 0.01 0.01 0.02 0.02 0.02 0.01 0.01 0.01 0.01 0.01 0.01 0.01 0.01 0.01 0.01 0.01 0.01 0.01 0.00 0.01 0.01 0.01 0.02 0.02 0.03 0.03 0.03 0.04 0.04 0.03 0.02 0.02 0.02 0.02 0.03 0.04
0.04 0.03 0.02 0.01 0.02 0.01 0.01 0.01 0.01 0.01 0.02 0.01 0.01 0.01 0.01 0.00 0.00 0.01 0.01 0.01 0.01 0.01 0.01 0.01 0.01 0.01 0.01 0.01 0.01 0.01 0.01 0.03 0.04 0.04 0.03 0.03 0.02 0.02 0.04 0.04 0.03 0.03 0.05
MSLP
1016.39 1016.66 1016.85 1016.97 1017.01 1017.01 1016.98 1016.95 1016.94 1016.96 1017.02 1017.12 1017.24 1017.38 1017.52 1017.65 1017.76 1017.82 1017.83 1017.78 1017.65 1017.46 1017.21 1016.89 1016.54 1016.15 1015.73 1015.31 1014.88 1014.46 1014.05 1013.64 1013.25 1012.87 1012.49 1012.09 1011.67 1011.19 1010.65 1010.03 1009.36 1008.66 1007.98
1016.46 1016.72 1016.94 1017.08 1017.17 1017.21 1017.23 1017.25 1017.28 1017.33 1017.41 1017.51 1017.62 1017.73 1017.84 1017.92 1017.99 1018.01 1017.99 1017.93 1017.82 1017.65 1017.44 1017.18 1016.87 1016.51 1016.12 1015.68 1015.23 1014.76 1014.28 1013.81 1013.36 1012.93 1012.49 1012.04 1011.55 1010.98 1010.32 1009.56 1008.73 1007.86 1007.02
1016.47 1016.73 1016.95 1017.12 1017.26 1017.36 1017.44 1017.52 1017.60 1017.69 1017.79 1017.88 1017.98 1018.06 1018.12 1018.15 1018.16 1018.13 1018.08 1018.00 1017.90 1017.77 1017.61 1017.41 1017.16 1016.85 1016.49 1016.07 1015.60 1015.09 1014.57 1014.04 1013.53 1013.03 1012.53 1012.01 1011.42 1010.74 1009.95 1009.02 1008.00 1006.95 1005.94
1016.47 1016.70 1016.92 1017.12 1017.30 1017.46 1017.60 1017.74 1017.88 1018.00 1018.12 1018.22 1018.29 1018.34 1018.35 1018.33 1018.28 1018.21 1018.12 1018.03 1017.93 1017.83 1017.72 1017.58 1017.40 1017.15 1016.83 1016.44 1015.97 1015.45 1014.89 1014.32 1013.75 1013.19 1012.62 1012.02 1011.33 1010.53 1009.58 1008.49 1007.28 1006.02 1004.83
1016.50 1016.68 1016.88 1017.09 1017.30 1017.51 1017.71 1017.90 1018.07 1018.23 1018.36 1018.46 1018.53 1018.55 1018.53 1018.47 1018.37 1018.26 1018.15 1018.04 1017.95 1017.87 1017.80 1017.72 1017.60 1017.42 1017.15 1016.79 1016.35 1015.82 1015.25 1014.64 1014.03 1013.41 1012.78 1012.10 1011.32 1010.40 1009.32 1008.06 1006.67 1005.23 1003.84
1016.55 1016.69 1016.86 1017.06 1017.28 1017.51 1017.75 1017.97 1018.17 1018.35 1018.50 1018.61 1018.67 1018.69 1018.66 1018.58 1018.47 1018.34 1018.20 1018.08 1017.99 1017.93 1017.89 1017.84 1017.78 1017.65 1017.44 1017.13 1016.71 1016.20 1015.62 1015.00 1014.36 1013.71 1013.02 1012.28 1011.43 1010.42 1009.23 1007.84 1006.30 1004.70 1003.14
1016.63 1016.72 1016.86 1017.04 1017.26 1017.49 1017.73 1017.96 1018.17 1018.36 1018.52 1018.65 1018.73 1018.76 1018.75 1018.69 1018.58 1018.45 1018.31 1018.19 1018.09 1018.03 1018.00 1017.98 1017.95 1017.86 1017.70 1017.44 1017.06 1016.58 1016.02 1015.40 1014.75 1014.07 1013.36 1012.58 1011.69 1010.63 1009.38 1007.91 1006.27 1004.55 1002.85
1016.71 1016.76 1016.87 1017.03 1017.23 1017.45 1017.67 1017.88 1018.08 1018.27 1018.44 1018.58 1018.70 1018.77 1018.80 1018.78 1018.71 1018.61 1018.48 1018.35 1018.24 1018.17 1018.13 1018.12 1018.11 1018.06 1017.94 1017.72 1017.39 1016.96 1016.43 1015.83 1015.19 1014.51 1013.79 1013.01 1012.11 1011.05 1009.78 1008.30 1006.63 1004.84 1003.06
1016.77 1016.80 1016.89 1017.02 1017.19 1017.38 1017.56 1017.75 1017.92 1018.09 1018.26 1018.43 1018.58 1018.71 1018.80 1018.84 1018.83 1018.76 1018.65 1018.53 1018.41 1018.32 1018.27 1018.25 1018.24 1018.21 1018.13 1017.97 1017.69 1017.31 1016.83 1016.27 1015.65 1014.99 1014.30 1013.54 1012.67 1011.65 1010.43 1009.00 1007.36 1005.59 1003.79
1016.75 1016.78 1016.87 1016.99 1017.13 1017.27 1017.42 1017.55 1017.69 1017.83 1017.99 1018.17 1018.36 1018.55 1018.71 1018.82 1018.87 1018.86 1018.78 1018.67 1018.54 1018.43 1018.36 1018.32 1018.32 1018.31 1018.27 1018.15 1017.94 1017.62 1017.20 1016.69 1016.11 1015.49 1014.83 1014.12 1013.32 1012.38 1011.27 1009.94 1008.41 1006.73 1004.99
1016.64 1016.69 1016.78 1016.90 1017.02 1017.13 1017.22 1017.31 1017.39 1017.50 1017.63 1017.82 1018.03 1018.27 1018.49 1018.68 1018.79 1018.83 1018.79 1018.69 1018.57 1018.44 1018.36 1018.32 1018.31 1018.33 1018.33 1018.28 1018.13 1017.88 1017.53 1017.08 1016.55 1015.98 1015.38 1014.73 1014.01 1013.18 1012.20 1011.03 1009.67 1008.15 1006.54
1016.42 1016.50 1016.60 1016.72 1016.83 1016.91 1016.97 1017.00 1017.03 1017.09 1017.19 1017.36 1017.59 1017.86 1018.13 1018.37 1018.55 1018.64 1018.64 1018.57 1018.45 1018.34 1018.25 1018.21 1018.23 1018.27 1018.32 1018.33 1018.26 1018.08 1017.80 1017.42 1016.95 1016.44 1015.89 1015.31 1014.69 1013.98 1013.16 1012.18 1011.03 1009.72 1008.30
1016.07 1016.18 1016.31 1016.44 1016.55 1016.61 1016.63 1016.62 1016.61 1016.62 1016.69 1016.84 1017.06 1017.34 1017.64 1017.92 1018.14 1018.28 1018.32 1018.29 1018.20 1018.11 1018.03 1018.02 1018.06 1018.15 1018.25 1018.33 1018.33 1018.24 1018.03 1017.71 1017.31 1016.85 1016.37 1015.86 1015.33 1014.75 1014.09 1013.31 1012.38 1011.30 1010.12
1015.60 1015.74 1015.90 1016.05 1016.16 1016.22 1016.22 1016.19 1016.14 1016.11 1016.15 1016.26 1016.46 1016.73 1017.04 1017.35 1017.61 1017.79 1017.87 1017.88 1017.84 1017.79 1017.75 1017.78 1017.86 1018.00 1018.16 1018.30 1018.37 1018.35 1018.22 1017.97 1017.63 1017.23 1016.81 1016.37 1015.93 1015.46 1014.95 1014.35 1013.64 1012.81 1011.88
1015.04 1015.19 1015.37 1015.53 1015.66 1015.73 1015.75 1015.70 1015.64 1015.59 1015.60 1015.69 1015.86 1016.11 1016.42 1016.73 1017.01 1017.22 1017.36 1017.42 1017.44 1017.44 1017.46 1017.53 1017.67 1017.85 1018.07 1018.26 1018.40 1018.45 1018.38 1018.20 1017.93 1017.59 1017.23 1016.85 1016.49 1016.12 1015.74 1015.30 1014.79 1014.18 1013.48
1014.39 1014.55 1014.74 1014.92 1015.08 1015.18 1015.21 1015.19 1015.14 1015.10 1015.09 1015.16 1015.31 1015.54 1015.83 1016.13 1016.43 1016.67 1016.85 1016.97 1017.05 1017.11 1017.20 1017.33 1017.51 1017.75 1018.00 1018.24 1018.43 1018.53 1018.53 1018.42 1018.21 1017.93 1017.63 1017.32 1017.02 1016.74 1016.46 1016.15 1015.80 1015.37 1014.88
1013.68 1013.84 1014.04 1014.24 1014.43 1014.57 1014.65 1014.68 1014.67 1014.64 1014.65 1014.71 1014.85 1015.06 1015.32 1015.62 1015.91 1016.18 1016.40 1016.58 1016.72 1016.85 1017.00 1017.18 1017.41 1017.68 1017.97 1018.24 1018.46 1018.61 1018.65 1018.60 1018.46 1018.25 1018.01 1017.77 1017.54 1017.33 1017.13 1016.91 1016.67 1016.39 1016.05
1012.95 1013.10 1013.31 1013.53 1013.75 1013.94 1014.08 1014.17 1014.22 1014.25 1014.28 1014.36 1014.48 1014.67 1014.92 1015.20 1015.49 1015.78 1016.03 1016.26 1016.46 1016.65 1016.85 1017.08 1017.34 1017.63 1017.93 1018.22 1018.46 1018.63 1018.72 1018.73 1018.66 1018.53 1018.37 1018.19 1018.03 1017.88 1017.74 1017.59 1017.43 1017.24 1017.01
1012.22 1012.37 1012.58 1012.82 1013.08 1013.32 1013.52 1013.68 1013.80 1013.88 1013.96 1014.06 1014.19 1014.36 1014.59 1014.85 1015.13 1015.42 1015.70 1015.96 1016.21 1016.45 1016.70 1016.96 1017.25 1017.55 1017.85 1018.14 1018.39 1018.58 1018.71 1018.78 1018.77 1018.73 1018.65 1018.56 1018.46 1018.37 1018.28 1018.18 1018.07 1017.94 1017.79
1011.52 1011.68 1011.89 1012.15 1012.43 1012.71 1012.97 1013.19 1013.37 1013.52 1013.64 1013.76 1013.90 1014.07 1014.27 1014.51 1014.77 1015.05 1015.34 1015.63 1015.91 1016.19 1016.48 1016.77 1017.07 1017.37 1017.67 1017.95 1018.20 1018.42 1018.58 1018.70 1018.77 1018.81 1018.82 1018.82 1018.80 1018.77 1018.73 1018.67 1018.60 1018.50 1018.39
1010.85 1011.03 1011.25 1011.51 1011.81 1012.11 1012.41 1012.68 1012.91 1013.11 1013.27 1013.41 1013.55 1013.71 1013.89 1014.10 1014.35 1014.61 1014.90 1015.20 1015.51 1015.82 1016.13 1016.44 1016.75 1017.06 1017.35 1017.63 1017.88 1018.11 1018.31 1018.49 1018.63 1018.75 1018.86 1018.94 1019.01 1019.05 1019.06 1019.04 1018.99 1018.93 1018.85
1010.21 1010.41 1010.64 1010.90 1011.20 1011.51 1011.83 1012.12 1012.39 1012.61 1012.79 1012.95 1013.10 1013.24 1013.40 1013.59 1013.80 1014.05 1014.33 1014.64 1014.96 1015.29 1015.62 1015.95 1016.28 1016.59 1016.88 1017.16 1017.42 1017.67 1017.90 1018.13 1018.34 1018.54 1018.73 1018.90 1019.04 1019.15 1019.22 1019.25 1019.24 1019.21 1019.16
1009.57 1009.80 1010.04 1010.30 1010.58 1010.88 1011.19 1011.48 1011.76 1011.99 1012.19 1012.36 1012.50 1012.64 1012.78 1012.94 1013.14 1013.37 1013.64 1013.94 1014.27 1014.62 1014.97 1015.32 1015.66 1015.98 1016.28 1016.57 1016.84 1017.11 1017.37 1017.63 1017.90 1018.17 1018.43 1018.68 1018.89 1019.07 1019.20 1019.28 1019.32 1019.33 1019.32
1008.86 1009.13 1009.39 1009.64 1009.91 1010.19 1010.47 1010.75 1011.02 1011.25 1011.46 1011.63 1011.78 1011.92 1012.05 1012.20 1012.38 1012.60 1012.86 1013.16 1013.49 1013.85 1014.22 1014.58 1014.94 1015.28 1015.59 1015.89 1016.18 1016.46 1016.75 1017.04 1017.35 1017.66 1017.97 1018.28 1018.55 1018.79 1018.98 1019.11 1019.21 1019.26 1019.31
1008.02 1008.34 1008.62 1008.88 1009.14 1009.39 1009.66 1009.92 1010.17 1010.41 1010.63 1010.81 1010.98 1011.13 1011.27 1011.43 1011.61 1011.82 1012.07 1012.37 1012.70 1013.06 1013.44 1013.82 1014.19 1014.54 1014.87 1015.18 1015.48 1015.77 1016.07 1016.37 1016.70 1017.03 1017.38 1017.71 1018.03 1018.31 1018.55 1018.74 1018.89 1019.01 1019.11
1006.98 1007.38 1007.70 1007.98 1008.24 1008.49 1008.74 1008.99 1009.25 1009.50 1009.74 1009.96 1010.16 1010.35 1010.52 1010.70 1010.89 1011.10 1011.35 1011.64 1011.97 1012.32 1012.70 1013.08 1013.46 1013.81 1014.15 1014.47 1014.76 1015.06 1015.35 1015.65 1015.98 1016.31 1016.66 1017.01 1017.34 1017.65 1017.93 1018.17 1018.37 1018.55 1018.71
Thickness
5728 5728 5728 5727 5727 5727 5727 5727 5726 5726 5726 5725 5725 5725 5724 5724 5722 5722 5722 5722 5723 5724 5724 5725 5725 5725 5724 5724 5724 5724 5724 5723 5723 5722 5722 5722 5722 5722 5722 5721 5721 5720 5720
5726 5725 5724 5723 5723 5724 5724 5723 5722 5721 5720 5719 5719 5719 5719 5719 5718 5718 5717 5717 5718 5718 5719 5719 5720 5720 5720 5720 5719 5719 5719 5719 5718 5718 5717 5717 5717 5717 5717 5717 5716 5715 5715
5723 5722 5720 5719 5719 5720 5720 5719 5718 5717 5715 5714 5713 5714 5714 5714 5714 5714 5713 5713 5713 5713 5713 5714 5714 5715 5715 5715 5715 5714 5714 5713 5713 5713 5712 5712 5712 5712 5712 5712 5711 5711 5711
5720 5718 5717 5716 5716 5716 5715 5714 5713 5711 5709 5708 5708 5708 5708 5709 5709 5709 5709 5709 5709 5708 5708 5708 5709 5709 5709 5709 5709 5709 5709 5708 5708 5707 5707 5707 5706 5706 5706 5706 5706 5706 5706
5717 5715 5714 5713 5713 5712 5711 5710 5708 5706 5703 5702 5702 5703 5703 5704 5705 5705 5705 5705 5705 5704 5704 5703 5703 5703 5703 5703 5704 5704 5703 5703 5703 5702 5702 5701 5701 5701 5701 5701 5701 5701 5701
5714 5712 5711 5710 5709 5708 5706 5705 5703 5702 5701 5700 5700 5698 5698 5699 5700 5700 5700 5701 5701 5700 5700 5699 5698 5697 5697 5698 5698 5698 5698 5698 5697 5697 5697 5696 5696 5696 5696 5696 5695 5696 5696
5711 5709 5708 5707 5706 5704 5703 5702 5700 5697 5696 5696 5693 5690 5692 5695 5695 5695 5696 5696 5696 5696 5696 5695 5694 5693 5692 5692 5692 5692 5692 5692 5692 5692 5692 5691 5691 5691 5690 5690 5690 5690 5690
5708 5707 5705 5703 5702 5700 5699 5698 5696 5693 5692 5693 5689 5685 5681 5682 5687 5691 5691 5691 5691 5691 5691 5691 5690 5689 5688 5687 5686 5686 5686 5687 5687 5686 5686 5686 5685 5685 5685 5685 5684 5684 5684
5705 5704 5702 5701 5699 5697 5695 5694 5693 5690 5688 5689 5690 5685 5678 5674 5677 5682 5685 5686 5686 5686 5686 5686 5686 5685 5684 5682 5681 5680 5680 5681 5681 5681 5680 5680 5680 5680 5680 5679 5679 5678 5678
5702 5701 5699 5698 5696 5694 5692 5691 5691 5689 5687 5684 5686 5687 5686 5682 5675 5671 5676 5680 5681 5681 5681 5681 5680 5680 5679 5677 5676 5675 5675 5675 5675 5675 5675 5675 5674 5674 5674 5674 5673 5673 5672
5700 5698 5697 5695 5694 5692 5690 5689 5688 5687 5685 5683 5681 5681 5682 5681 5680 5672 5667 5670 5673 5674 5675 5675 5674 5674 5673 5672 5671 5670 5670 5670 5670 5669 5670 5669 5669 5669 5669 5668 5668 5668 5667
5697 5696 5695 5693 5691 5689 5687 5686 5684 5683 5682 5681 5680 5679 5677 5675 5674 5672 5667 5665 5665 5667 5669 5670 5669 5668 5668 5667 5666 5666 5665 5665 5664 5664 5664 5664 5664 5663 5663 5662 5662 5662 5662
5693 5693 5692 5690 5688 5686 5685 5683 5681 5680 5679 5678 5677 5676 5675 5674 5674 5671 5666 5663 5662 5662 5663 5664 5664 5664 5663 5662 5662 5661 5661 5660 5660 5659 5659 5659 5659 5658 5657 5657 5657 5657 5656
5692 5691 5690 5688 5686 5684 5682 5680 5678 5677 5676 5675 5674 5672 5671 5670 5670 5669 5665 5660 5656 5656 5657 5657 5659 5660 5659 5658 5657 5657 5656 5656 5655 5655 5654 5654 5653 5653 5652 5652 5652 5651 5651
5692 5690 5687 5685 5683 5681 5679 5677 5674 5673 5672 5671 5669 5668 5667 5666 5666 5666 5664 5660 5654 5649 5649 5652 5653 5655 5655 5654 5654 5653 5652 5652 5651 5650 5650 5650 5649 5648 5648 5647 5647 5647 5646
5690 5688 5685 5682 5680 5678 5676 5674 5672 5670 5668 5666 5665 5664 5663 5662 5661 5661 5659 5658 5656 5651 5647 5650 5651 5652 5652 5651 5650 5649 5649 5648 5647 5646 5646 5645 5645 5644 5644 5643 5642 5642 5641
5687 5685 5682 5680 5678 5675 5673 5671 5668 5667 5664 5662 5662 5661 5659 5658 5657 5656 5655 5653 5652 5650 5645 5645 5648 5648 5647 5646 5646 5645 5645 5644 5643 5643 5642 5642 5641 5641 5640 5639 5638 5637 5637
5684 5682 5680 5677 5675 5673 5671 5668 5665 5663 5661 5659 5658 5657 5655 5655 5653 5651 5650 5649 5648 5647 5644 5640 5641 5642 5642 5643 5642 5641 5641 5641 5640 5639 5639 5638 5637 5636 5636 5635 5634 5633 5632
5680 5678 5676 5674 5671 5669 5667 5665 5663 5661 5659 5657 5655 5653 5652 5650 5648 5646 5645 5644 5643 5643 5641 5638 5636 5637 5638 5639 5637 5637 5637 5637 5636 5636 5635 5634 5633 5632 5631 5630 5629 5628 5628
5676 5673 5672 5670 5667 5665 5663 5661 5659 5657 5655 5654 5653 5651 5649 5647 5645 5643 5641 5640 5638 5637 5635 5633 5632 5632 5632 5633 5632 5631 5630 5631 5631 5632 5631 5630 5629 5628 5627 5626 5625 5624 5623
5672 5670 5667 5665 5663 5661 5659 5656 5654 5653 5650 5649 5648 5646 5645 5644 5643 5640 5638 5635 5633 5631 5629 5628 5626 5626 5625 5625 5625 5626 5625 5625 5626 5627 5626 5626 5625 5624 5622 5621 5621 5620 5619
5667 5665 5662 5660 5658 5656 5654 5652 5650 5647 5645 5643 5641 5640 5640 5639 5638 5636 5634 5632 5630 5627 5625 5623 5621 5620 5621 5622 5621 5621 5619 5617 5616 5621 5620 5620 5621 5619 5619 5618 5617 5616 5615
5661 5659 5657 5655 5652 5650 5649 5647 5645 5642 5640 5638 5636 5635 5635 5634 5632 5630 5629 5628 5626 5625 5623 5621 5618 5618 5618 5618 5617 5615 5614 5613 5613 5615 5615 5613 5615 5614 5615 5614 5613 5611 5610
5657 5654 5652 5650 5647 5645 5644 5642 5640 5638 5635 5634 5632 5631 5630 5628 5628 5625 5624 5622 5620 5619 5619 5618 5617 5616 5615 5615 5613 5612 5610 5610 5610 5611 5610 5607 5608 5608 5610 5609 5608 5606 5605
5652 5650 5648 5646 5643 5641 5640 5638 5636 5633 5630 5629 5628 5626 5625 5623 5623 5621 5618 5615 5614 5614 5614 5614 5613 5612 5611 5610 5609 5605 5603 5601 5601 5602 5604 5602 5602 5602 5603 5603 5602 5600 5599
5647 5645 5643 5641 5639 5636 5635 5633 5631 5628 5625 5623 5622 5621 5620 5618 5617 5615 5612 5609 5607 5608 5608 5608 5606 5606 5605 5604 5603 5601 5599 5596 5595 5594 5597 5596 5595 5594 5593 5596 5595 5593 5592